Regional Weather Roundup
Issued by NWS Kansas City/Pleasant Hill, MO

Home | Current Version | Previous Version | Text Only | Print | Product List | Glossary On
Versions: 1 2 3 4 5 6 7 8 9 10 11 12 13 14 15 16 17 18 19 20 21 22 23 24 25 26 27
000
ASUS43 KEAX 231610
RWREAX

WEATHER ROUNDUP FOR EASTERN KANSAS AND NORTHWEST MISSOURI
NATIONAL WEATHER SERVICE KANSAS CITY/PLEASANT HILL MO
1100 AM CDT WED MAY 23 2018

KSZ040-057-103>105-MOZ028-029-037-043-231700-
...KANSAS CITY METROPOLITAN AREA...

CITY           SKY/WX    TMP DP  RH WIND       PRES   REMARKS
K.C. INTL      MOSUNNY   82  68  62 S8        30.11S
K.C. DOWNTOWN  SUNNY     85  66  53 VRB3      30.09S
LEES SUMMIT    SUNNY     83  68  60 SE8       30.12S
OLATHE - IXD   SUNNY     83  68  60 S6        30.12S
OLATHE - OJC   SUNNY     80  69  69 S5        30.12R
LAWRENCE       SUNNY     84  70  62 S8        30.10R

$$

MOZ001>008-011>017-020>025-030>033-038>040-044>046-053-054-231700-
...NORTHERN AND CENTRAL MISSOURI...

CITY           SKY/WX    TMP DP  RH WIND       PRES   REMARKS
ST. JOSEPH     SUNNY     86  68  54 S8        30.09S
MOSBY          SUNNY     81  64  57 S5        30.11S
WARRENSBURG    SUNNY     81  68  65 SE6       30.12S
WHITEMAN AFB   MOSUNNY   82  69  63 S6        30.09S
CLINTON        SUNNY     82  70  65 SE7       30.13S
SEDALIA        SUNNY     83  72  69 S7        30.14S
WARSAW         NOT AVBL
CHILLICOTHE      N/A     83  68  60 SE3       30.12S
KIRKSVILLE     SUNNY     80  67  64 S10       30.16S

$$

MOZ041-047>049-056>058-063>065-088>090-097-231700-
...EASTERN AND SOUTHERN MISSOURI...

CITY           SKY/WX    TMP DP  RH WIND       PRES   REMARKS
ST. LOUIS INTL MOSUNNY   79  63  57 SE8       30.17R
SPIRIT OF STL  SUNNY     81  63  54 MISG      30.15S
COLUMBIA       SUNNY     81  67  62 SE9       30.15S
JEFFERSON CITY SUNNY     80  66  62 VRB7      30.14R
ROLLA          SUNNY     79  66  64 E6        30.17S
OSAGE BEACH    SUNNY     82  71  69 SE7       30.15S
SPRINGFIELD    MOSUNNY   80  68  66 S8        30.13S
BRANSON        PTSUNNY   81  68  65 SE8       30.16S
JOPLIN         MOSUNNY   80  68  66 W3        30.12S
WEST PLAINS    MOSUNNY   80  70  71 E5        30.17S

$$

IAZ060-094-KSZ022-034>040-054-083-096-NEZ052-066-093-231700-
...KANSAS...SOUTHEAST NEBRASKA AND IOWA...

CITY           SKY/WX    TMP DP  RH WIND       PRES   REMARKS
TOPEKA         SUNNY     83  71  67 S8        30.09S
MANHATTAN      MOSUNNY   85  68  56 S12       30.07S
EMPORIA        SUNNY     81  70  69 S6        30.10S
CHANUTE        SUNNY     80  72  76 VRB3      30.12R
WICHITA        MOSUNNY   82  69  64 S10       30.08S
OMAHA          MOSUNNY   82  68  62 S14       30.06S
LINCOLN        SUNNY     84  67  56 S14       30.04F
FALLS CITY     SUNNY     85  65  51 S15G21    30.07F
LAMONI         SUNNY     80  66  62 SE8       30.13S
DES MOINES     CLOUDY    79  66  64 SE10      30.12S

$$





USA.gov is the U.S. government's official web portal to all federal, state and local government web resources and services.